DW7003 Weather Reports


time (UTC)temp
C
wind
direction
speed
KPH
gust
KPH
rain 1hr
cm
rain 24hr
cm
rain mn
cm
humidity
%
barometer
mb
20260505051534 15 141 0.0 4.8 0.00 0.00 0.00 74 1010.8
20260505041527 15 141 1.6 11.3 0.00 0.00 0.00 70 1011.2
20260505040037 15 142 0.0 8.0 0.00 0.00 0.00 69 1011.2
20260505034535 15 141 1.6 12.9 0.00 0.00 0.00 67 1011.4
20260505033024 15 140 0.0 4.8 0.00 0.00 0.00 66 1011.3
20260505031525 15 139 0.0 4.8 0.00 0.00 0.00 66 1011.4
20260505030022 15 140 0.0 11.3 0.00 0.00 0.00 65 1011.4
20260505024522 15 140 0.0 6.4 0.00 0.00 0.00 65 1011.5
20260505023021 16 141 0.0 0.0 0.00 0.00 0.00 64 1011.6
20260505021522 16 141 0.0 0.0 0.00 0.00 0.00 64 1011.6
20260505020034 16 141 0.0 1.6 0.00 0.00 0.00 62 1011.6
20260505014519 16 141 0.0 3.2 0.00 0.00 0.00 63 1011.6
20260505013019 16 141 0.0 1.6 0.00 0.00 0.00 62 1011.5
20260505011518 16 142 0.0 6.4 0.00 0.00 0.00 62 1011.3
20260505010018 16 140 0.0 6.4 0.00 0.00 0.00 61 1011.3
20260505004521 16 142 0.0 12.9 0.00 0.00 0.00 59 1011.1
20260505003017 17 140 0.0 11.3 0.00 0.00 0.00 57 1010.9
20260505001518 17 140 0.0 16.1 0.00 0.00 0.00 55 1010.8
20260505000022 18 140 0.0 8.0 0.00 0.00 0.00 52 1010.5
20260504234516 18 139 0.0 12.9 0.00 0.00 0.00 49 1010.4
20260504233016 18 140 0.0 11.3 0.00 0.00 0.00 49 1010.3
20260504231515 19 132 3.2 17.7 0.00 0.00 0.00 47 1010.2
20260504230014 19 137 1.6 20.9 0.00 0.00 0.00 47 1010.1
20260504224517 20 139 1.6 22.5 0.00 0.00 0.00 47 1010.0
20260504223013 20 142 4.8 14.5 0.00 0.00 0.00 47 1009.8
20260504221516 20 148 0.0 11.3 0.00 0.00 0.00 47 1009.9
20260504220029 20 134 6.4 17.7 0.00 0.00 0.00 46 1009.9
20260504214512 21 148 3.2 16.1 0.00 0.00 0.00 44 1009.8
20260504213014 21 151 4.8 25.7 0.00 0.00 0.00 45 1009.9
20260504211511 21 145 6.4 20.9 0.00 0.00 0.00 45 1009.8
20260504210009 21 142 3.2 25.7 0.00 0.00 0.00 45 1009.9
20260504204508 22 137 0.0 19.3 0.00 0.00 0.00 44 1009.7
20260504203008 23 146 1.6 14.5 0.00 0.00 0.00 34 1009.6
20260504201507 23 127 0.0 17.7 0.00 0.00 0.00 32 1009.6
20260504200006 23 142 0.0 22.5 0.00 0.00 0.00 32 1009.8
20260504194504 24 99 3.2 17.7 0.00 0.00 0.00 31 1010.1
20260504193002 24 136 0.0 14.5 0.00 0.00 0.00 32 1010.1
20260504191559 24 42 0.0 11.3 0.00 0.00 0.00 31 1010.4
20260504190107 23 115 0.0 17.7 0.00 0.00 0.00 35 1010.7
20260504184554 23 140 1.6 16.1 0.00 0.00 0.00 33 1010.9
20260504183058 23 126 3.2 17.7 0.00 0.00 0.00 32 1011.1
20260504181549 23 54 3.2 12.9 0.00 0.00 0.00 33 1011.3
20260504180122 22 130 0.0 17.7 0.00 0.00 0.00 36 1011.4
20260504174545 22 106 0.0 16.1 0.00 0.00 0.00 33 1011.6
20260504173043 22 141 0.0 19.3 0.00 0.00 0.00 36 1011.8
20260504171541 22 81 0.0 11.3 0.00 0.00 0.00 33 1012.0
20260504081558 8 125 0.0 0.0 0.00 0.00 0.00 63 1015.1